Volver al catálogo

STARLINK-38107

ActivoComunicacionesVLEO
NORAD 100004·PAYLOAD·🇺🇸 United States

Lanzado Jul 14, 2026 desde Vandenberg Space Force Base

Loading…

Próximos Pases (próximas 24 horas)

TLE

ActualizadoSource: Space-Track

Época: Sep 14, 2026, 21:03 UTC

1 A0004U 26160D   26257.87749315  .00458154  00000-0  25806-2 0  9995
2 A0004  70.0017 210.9538 0003488 254.8737 105.2077 15.77773949 11102

Sigue STARLINK-38107 en tiempo real con AllMySat

Download on the App Store